| time (UTC) | temp F | wind direction | speed knots | gust knots | rain 1hr in | rain 24hr in | rain mn in | humidity % | barometer mb |
| 20260510072442 | 75 | 285 | 1.7 | 5.2 | 0.00 | 0.00 | 0.00 | 38 | 1025.2 |
| 20260510071938 | 73 | 351 | 2.6 | 7.8 | 0.00 | 0.00 | 0.00 | 40 | 1025.2 |
| 20260510071434 | 73 | 259 | 4.3 | 9.6 | 0.00 | 0.00 | 0.00 | 39 | 1025.2 |
| 20260510070933 | 74 | 254 | 2.6 | 5.2 | 0.00 | 0.00 | 0.00 | 39 | 1025.3 |
| 20260510070430 | 74 | 275 | 2.6 | 7.0 | 0.00 | 0.00 | 0.00 | 38 | 1025.4 |
| 20260510065925 | 75 | 282 | 5.2 | 6.1 | 0.00 | 0.00 | 0.00 | 39 | 1025.5 |
| 20260510065422 | 75 | 38 | 7.0 | 8.7 | 0.00 | 0.00 | 0.00 | 32 | 1025.4 |
| 20260510064918 | 75 | 7 | 6.1 | 9.6 | 0.00 | 0.00 | 0.00 | 32 | 1025.6 |
| 20260510064416 | 75 | 38 | 6.1 | 8.7 | 0.00 | 0.00 | 0.00 | 33 | 1025.2 |
| 20260510063912 | 75 | 76 | 4.3 | 7.8 | 0.00 | 0.00 | 0.00 | 33 | 1025.3 |
| 20260510063408 | 75 | 38 | 8.7 | 11.3 | 0.00 | 0.00 | 0.00 | 33 | 1025.3 |
| 20260510062907 | 75 | 45 | 7.0 | 8.7 | 0.00 | 0.00 | 0.00 | 33 | 1025.3 |
| 20260510062401 | 75 | 64 | 1.7 | 10.4 | 0.00 | 0.00 | 0.00 | 33 | 1025.3 |
| 20260510061857 | 75 | 85 | 4.3 | 7.8 | 0.00 | 0.00 | 0.00 | 33 | 1025.3 |
| 20260510061354 | 75 | 31 | 6.1 | 12.2 | 0.00 | 0.00 | 0.00 | 33 | 1025.4 |
| 20260510060849 | 75 | 39 | 10.4 | 13.9 | 0.00 | 0.00 | 0.00 | 33 | 1025.5 |
| 20260510060347 | 75 | 33 | 10.4 | 11.3 | 0.00 | 0.00 | 0.00 | 33 | 1025.5 |
| 20260510055843 | 75 | 71 | 7.0 | 13.9 | 0.00 | 0.00 | 0.00 | 32 | 1025.8 |
| 20260510055343 | 74 | 16 | 5.2 | 8.7 | 0.00 | 0.00 | 0.00 | 34 | 1025.8 |
| 20260510054842 | 74 | 27 | 7.0 | 7.8 | 0.00 | 0.00 | 0.00 | 34 | 1025.8 |
| 20260510054338 | 74 | 0 | 4.3 | 7.0 | 0.00 | 0.00 | 0.00 | 33 | 1025.9 |
| 20260510053833 | 75 | 38 | 6.1 | 8.7 | 0.00 | 0.00 | 0.00 | 33 | 1025.9 |
| 20260510053328 | 75 | 15 | 3.5 | 9.6 | 0.00 | 0.00 | 0.00 | 32 | 1025.9 |
| 20260510052825 | 74 | 0 | 6.1 | 6.1 | 0.00 | 0.00 | 0.00 | 32 | 1026.0 |
| 20260510052321 | 74 | 23 | 7.0 | 9.6 | 0.00 | 0.00 | 0.00 | 33 | 1026.0 |
| 20260510051818 | 74 | 6 | 6.1 | 11.3 | 0.00 | 0.00 | 0.00 | 34 | 1026.1 |
| 20260510051314 | 74 | 87 | 1.7 | 4.3 | 0.00 | 0.00 | 0.00 | 34 | 1026.2 |
| 20260510050811 | 74 | 12 | 6.1 | 8.7 | 0.00 | 0.00 | 0.00 | 34 | 1026.2 |
| 20260510050308 | 74 | 45 | 7.8 | 8.7 | 0.00 | 0.00 | 0.00 | 33 | 1026.4 |
| 20260510045805 | 74 | 47 | 5.2 | 7.8 | 0.00 | 0.00 | 0.00 | 35 | 1026.5 |
| 20260510045305 | 74 | 1 | 6.1 | 11.3 | 0.00 | 0.00 | 0.00 | 35 | 1026.6 |
| 20260510044759 | 73 | 46 | 7.0 | 9.6 | 0.00 | 0.00 | 0.00 | 35 | 1026.5 |
| 20260510044256 | 73 | 25 | 4.3 | 9.6 | 0.00 | 0.00 | 0.00 | 34 | 1026.7 |
| 20260510043752 | 73 | 351 | 9.6 | 10.4 | 0.00 | 0.00 | 0.00 | 34 | 1026.5 |
| 20260510043248 | 73 | 334 | 7.8 | 11.3 | 0.00 | 0.00 | 0.00 | 35 | 1026.6 |
| 20260510042746 | 73 | 27 | 8.7 | 10.4 | 0.00 | 0.00 | 0.00 | 35 | 1026.7 |
| 20260510042241 | 73 | 13 | 7.0 | 8.7 | 0.00 | 0.00 | 0.00 | 35 | 1026.9 |
| 20260510041739 | 72 | 44 | 7.8 | 13.0 | 0.00 | 0.00 | 0.00 | 36 | 1026.9 |
| 20260510041236 | 73 | 43 | 8.7 | 13.0 | 0.00 | 0.00 | 0.00 | 36 | 1027.0 |
| 20260510040733 | 72 | 28 | 9.6 | 13.9 | 0.00 | 0.00 | 0.00 | 37 | 1027.2 |
| 20260510040230 | 73 | 13 | 7.0 | 13.9 | 0.00 | 0.00 | 0.00 | 37 | 1027.3 |
| 20260510035724 | 72 | 32 | 6.1 | 12.2 | 0.00 | 0.00 | 0.00 | 38 | 1027.3 |
| 20260510035221 | 72 | 357 | 7.0 | 13.0 | 0.00 | 0.00 | 0.00 | 37 | 1027.4 |
| 20260510034717 | 72 | 19 | 7.0 | 7.8 | 0.00 | 0.00 | 0.00 | 38 | 1027.3 |
| 20260510034215 | 71 | 38 | 9.6 | 12.2 | 0.00 | 0.00 | 0.00 | 40 | 1027.6 |
| 20260510033710 | 72 | 28 | 6.1 | 9.6 | 0.00 | 0.00 | 0.00 | 39 | 1027.7 |
| 20260510033209 | 71 | 36 | 12.2 | 13.0 | 0.00 | 0.00 | 0.00 | 40 | 1027.7 |
| 20260510032705 | 71 | 19 | 12.2 | 13.0 | 0.00 | 0.00 | 0.00 | 40 | 1027.6 |
| 20260510032200 | 71 | 31 | 6.1 | 12.2 | 0.00 | 0.00 | 0.00 | 41 | 1027.6 |
| 20260510031655 | 71 | 43 | 8.7 | 12.2 | 0.00 | 0.00 | 0.00 | 41 | 1027.9 |
| 20260510031153 | 71 | 39 | 4.3 | 8.7 | 0.00 | 0.00 | 0.00 | 42 | 1027.9 |
| 20260510030652 | 70 | 23 | 7.8 | 10.4 | 0.00 | 0.00 | 0.00 | 41 | 1027.8 |
| 20260510030150 | 70 | 54 | 12.2 | 14.8 | 0.00 | 0.00 | 0.00 | 42 | 1027.8 |
| 20260510025647 | 70 | 51 | 7.8 | 9.6 | 0.00 | 0.00 | 0.00 | 42 | 1027.7 |
| 20260510025144 | 69 | 39 | 7.8 | 12.2 | 0.00 | 0.00 | 0.00 | 43 | 1027.8 |
| 20260510024641 | 69 | 21 | 9.6 | 13.0 | 0.00 | 0.00 | 0.00 | 44 | 1027.9 |
| 20260510024137 | 69 | 33 | 5.2 | 13.9 | 0.00 | 0.00 | 0.00 | 43 | 1027.9 |
| 20260510023633 | 69 | 28 | 10.4 | 13.9 | 0.00 | 0.00 | 0.00 | 44 | 1028.0 |
| 20260510023131 | 69 | 31 | 7.8 | 17.4 | 0.00 | 0.00 | 0.00 | 44 | 1028.2 |
| 20260510022631 | 69 | 60 | 6.1 | 12.2 | 0.00 | 0.00 | 0.00 | 45 | 1028.2 |
| 20260510022126 | 69 | 51 | 7.8 | 10.4 | 0.00 | 0.00 | 0.00 | 45 | 1028.2 |
| 20260510021621 | 68 | 26 | 9.6 | 13.9 | 0.00 | 0.00 | 0.00 | 45 | 1028.4 |
| 20260510021120 | 68 | 34 | 11.3 | 12.2 | 0.00 | 0.00 | 0.00 | 47 | 1028.3 |
| 20260510020613 | 67 | 59 | 7.8 | 11.3 | 0.00 | 0.00 | 0.00 | 48 | 1028.6 |
| 20260510020109 | 67 | 39 | 9.6 | 12.2 | 0.00 | 0.00 | 0.00 | 47 | 1028.3 |
| 20260510015605 | 67 | 56 | 7.0 | 11.3 | 0.00 | 0.00 | 0.00 | 48 | 1028.4 |
| 20260510015102 | 67 | 33 | 7.8 | 10.4 | 0.00 | 0.00 | 0.00 | 49 | 1028.5 |
| 20260510014558 | 66 | 45 | 5.2 | 11.3 | 0.00 | 0.00 | 0.00 | 49 | 1028.5 |
| 20260510014055 | 65 | 23 | 7.8 | 10.4 | 0.00 | 0.00 | 0.00 | 50 | 1028.5 |
| 20260510013549 | 65 | 36 | 7.8 | 11.3 | 0.00 | 0.00 | 0.00 | 50 | 1028.5 |
| 20260510013045 | 65 | 62 | 7.0 | 13.0 | 0.00 | 0.00 | 0.00 | 50 | 1028.6 |
| 20260510012539 | 64 | 43 | 7.0 | 12.2 | 0.00 | 0.00 | 0.00 | 51 | 1028.6 |
| 20260510012036 | 64 | 34 | 6.1 | 13.9 | 0.00 | 0.00 | 0.00 | 52 | 1028.7 |
| 20260510011536 | 64 | 38 | 9.6 | 13.0 | 0.00 | 0.00 | 0.00 | 52 | 1028.6 |
| 20260510011032 | 64 | 42 | 11.3 | 12.2 | 0.00 | 0.00 | 0.00 | 52 | 1028.6 |
| 20260510010528 | 63 | 31 | 7.8 | 10.4 | 0.00 | 0.00 | 0.00 | 53 | 1028.6 |
| 20260510010026 | 63 | 33 | 7.0 | 11.3 | 0.00 | 0.00 | 0.00 | 53 | 1028.7 |
| 20260510005521 | 62 | 40 | 9.6 | 11.3 | 0.00 | 0.00 | 0.00 | 53 | 1028.6 |
| 20260510005019 | 62 | 92 | 7.8 | 9.6 | 0.00 | 0.00 | 0.00 | 53 | 1028.7 |
| 20260510004516 | 62 | 52 | 9.6 | 12.2 | 0.00 | 0.00 | 0.00 | 54 | 1028.7 |
| 20260510004015 | 62 | 42 | 6.1 | 7.0 | 0.00 | 0.00 | 0.00 | 54 | 1028.6 |
| 20260510003510 | 61 | 47 | 7.0 | 12.2 | 0.00 | 0.00 | 0.00 | 55 | 1028.7 |
| 20260510003006 | 61 | 45 | 9.6 | 11.3 | 0.00 | 0.00 | 0.00 | 55 | 1028.8 |
| 20260510002502 | 61 | 72 | 5.2 | 11.3 | 0.00 | 0.00 | 0.00 | 56 | 1028.9 |
| 20260510001959 | 60 | 58 | 7.0 | 11.3 | 0.00 | 0.00 | 0.00 | 56 | 1028.6 |
| 20260510001456 | 60 | 58 | 5.2 | 9.6 | 0.00 | 0.00 | 0.00 | 56 | 1028.5 |
| 20260510000954 | 60 | 53 | 5.2 | 8.7 | 0.00 | 0.00 | 0.00 | 57 | 1028.5 |
| 20260510000449 | 59 | 59 | 7.8 | 11.3 | 0.00 | 0.00 | 0.00 | 57 | 1028.3 |
| 20260509235946 | 59 | 28 | 6.1 | 8.7 | 0.00 | 0.00 | 0.00 | 58 | 1028.3 |
| 20260509235443 | 59 | 50 | 6.1 | 9.6 | 0.00 | 0.00 | 0.00 | 58 | 1028.3 |
| 20260509234940 | 58 | 41 | 7.8 | 11.3 | 0.00 | 0.00 | 0.00 | 59 | 1028.3 |
| 20260509234436 | 58 | 63 | 7.8 | 12.2 | 0.00 | 0.00 | 0.00 | 59 | 1028.3 |
| 20260509233934 | 58 | 49 | 3.5 | 7.0 | 0.00 | 0.00 | 0.00 | 59 | 1028.2 |
| 20260509233432 | 57 | 66 | 7.8 | 10.4 | 0.00 | 0.00 | 0.00 | 60 | 1028.2 |
| 20260509232927 | 57 | 41 | 7.0 | 9.6 | 0.00 | 0.00 | 0.00 | 60 | 1028.2 |
| 20260509232425 | 57 | 63 | 6.1 | 7.8 | 0.00 | 0.00 | 0.00 | 61 | 1028.3 |
| 20260509231921 | 56 | 59 | 7.0 | 7.8 | 0.00 | 0.00 | 0.00 | 61 | 1028.2 |
| 20260509231418 | 56 | 65 | 6.1 | 7.8 | 0.00 | 0.00 | 0.00 | 62 | 1028.2 |
| 20260509230916 | 56 | 42 | 5.2 | 8.7 | 0.00 | 0.00 | 0.00 | 62 | 1028.4 |
| 20260509230412 | 56 | 60 | 4.3 | 7.8 | 0.00 | 0.00 | 0.00 | 62 | 1028.1 |
| 20260509225908 | 56 | 53 | 6.1 | 7.0 | 0.00 | 0.00 | 0.00 | 62 | 1028.2 |
| 20260509225405 | 56 | 61 | 5.2 | 7.0 | 0.00 | 0.00 | 0.00 | 62 | 1028.2 |
| 20260509224901 | 56 | 73 | 7.0 | 7.8 | 0.00 | 0.00 | 0.00 | 62 | 1028.0 |
| 20260509224357 | 56 | 74 | 5.2 | 8.7 | 0.00 | 0.00 | 0.00 | 62 | 1028.0 |
| 20260509223855 | 56 | 58 | 5.2 | 6.1 | 0.00 | 0.00 | 0.00 | 62 | 1028.2 |
| 20260509223350 | 56 | 58 | 7.0 | 7.8 | 0.00 | 0.00 | 0.00 | 62 | 1028.2 |
| 20260509222849 | 56 | 56 | 8.7 | 9.6 | 0.00 | 0.00 | 0.00 | 62 | 1028.2 |
| 20260509222349 | 56 | 68 | 5.2 | 7.8 | 0.00 | 0.00 | 0.00 | 62 | 1028.2 |
| 20260509221844 | 56 | 44 | 4.3 | 7.0 | 0.00 | 0.00 | 0.00 | 62 | 1028.1 |
| 20260509221342 | 56 | 58 | 6.1 | 7.0 | 0.00 | 0.00 | 0.00 | 62 | 1028.0 |
| 20260509220843 | 56 | 49 | 7.0 | 7.8 | 0.00 | 0.00 | 0.00 | 62 | 1028.1 |
| 20260509220339 | 56 | 57 | 4.3 | 7.0 | 0.00 | 0.00 | 0.00 | 62 | 1027.9 |
| 20260509215834 | 56 | 60 | 6.1 | 7.0 | 0.00 | 0.00 | 0.00 | 61 | 1027.9 |
| 20260509215331 | 56 | 69 | 3.5 | 7.8 | 0.00 | 0.00 | 0.00 | 61 | 1027.9 |
| 20260509214828 | 56 | 56 | 6.1 | 7.8 | 0.00 | 0.00 | 0.00 | 61 | 1027.9 |
| 20260509214325 | 56 | 59 | 4.3 | 5.2 | 0.00 | 0.00 | 0.00 | 61 | 1027.8 |
| 20260509213823 | 57 | 43 | 6.1 | 7.8 | 0.00 | 0.00 | 0.00 | 60 | 1027.8 |
| 20260509213318 | 57 | 62 | 7.0 | 8.7 | 0.00 | 0.00 | 0.00 | 60 | 1027.6 |
| 20260509212816 | 57 | 59 | 6.1 | 8.7 | 0.00 | 0.00 | 0.00 | 60 | 1027.7 |
| 20260509212313 | 56 | 56 | 4.3 | 7.8 | 0.00 | 0.00 | 0.00 | 60 | 1027.5 |
| 20260509211809 | 56 | 42 | 7.8 | 7.8 | 0.00 | 0.00 | 0.00 | 60 | 1027.6 |
| 20260509211305 | 57 | 58 | 5.2 | 9.6 | 0.00 | 0.00 | 0.00 | 60 | 1027.5 |
| 20260509210801 | 57 | 46 | 7.0 | 7.8 | 0.00 | 0.00 | 0.00 | 59 | 1027.6 |
| 20260509210259 | 57 | 39 | 4.3 | 8.7 | 0.00 | 0.00 | 0.00 | 59 | 1027.7 |
| 20260509205759 | 57 | 58 | 3.5 | 8.7 | 0.00 | 0.00 | 0.00 | 59 | 1027.4 |
| 20260509205254 | 56 | 68 | 4.3 | 9.6 | 0.00 | 0.00 | 0.00 | 59 | 1027.3 |
| 20260509204750 | 56 | 28 | 6.1 | 7.8 | 0.00 | 0.00 | 0.00 | 60 | 1027.1 |
| 20260509204246 | 56 | 45 | 4.3 | 7.0 | 0.00 | 0.00 | 0.00 | 60 | 1027.3 |
| 20260509203742 | 56 | 60 | 4.3 | 6.1 | 0.00 | 0.00 | 0.00 | 60 | 1027.2 |
| 20260509203241 | 55 | 57 | 6.1 | 7.0 | 0.00 | 0.00 | 0.00 | 61 | 1027.2 |
| 20260509202736 | 55 | 51 | 3.5 | 5.2 | 0.00 | 0.00 | 0.00 | 61 | 1027.2 |
| 20260509202232 | 55 | 58 | 3.5 | 5.2 | 0.00 | 0.00 | 0.00 | 61 | 1027.1 |
| 20260509201726 | 55 | 38 | 4.3 | 4.3 | 0.00 | 0.00 | 0.00 | 62 | 1027.2 |
| 20260509201224 | 55 | 71 | 1.7 | 2.6 | 0.00 | 0.00 | 0.00 | 62 | 1027.2 |
| 20260509200720 | 55 | 19 | 0.0 | 3.5 | 0.00 | 0.00 | 0.00 | 62 | 1027.2 |
| 20260509200215 | 55 | 46 | 2.6 | 3.5 | 0.00 | 0.00 | 0.00 | 62 | 1027.0 |
| 20260509195711 | 55 | 85 | 2.6 | 4.3 | 0.00 | 0.00 | 0.00 | 62 | 1026.9 |
| 20260509195207 | 55 | 54 | 1.7 | 3.5 | 0.00 | 0.00 | 0.00 | 62 | 1026.9 |
| 20260509194706 | 55 | 72 | 1.7 | 3.5 | 0.00 | 0.00 | 0.00 | 62 | 1027.0 |
| 20260509194203 | 55 | 68 | 1.7 | 4.3 | 0.00 | 0.00 | 0.00 | 62 | 1027.0 |
| 20260509193700 | 54 | 39 | 1.7 | 3.5 | 0.00 | 0.00 | 0.00 | 62 | 1027.0 |
| 20260509193155 | 55 | 43 | 2.6 | 2.6 | 0.00 | 0.00 | 0.00 | 62 | 1026.9 |
| 20260509192652 | 55 | 24 | 2.6 | 3.5 | 0.00 | 0.00 | 0.00 | 62 | 1026.9 |
| 20260509192147 | 55 | 28 | 2.6 | 3.5 | 0.00 | 0.00 | 0.00 | 61 | 1026.9 |
| 20260509191647 | 55 | 39 | 2.6 | 4.3 | 0.00 | 0.00 | 0.00 | 61 | 1026.9 |
| 20260509191144 | 55 | 23 | 1.7 | 3.5 | 0.00 | 0.00 | 0.00 | 60 | 1027.0 |
| 20260509190640 | 56 | 21 | 2.6 | 2.6 | 0.00 | 0.00 | 0.00 | 59 | 1027.0 |
| 20260509190138 | 56 | 37 | 2.6 | 3.5 | 0.00 | 0.00 | 0.00 | 58 | 1027.0 |
| 20260509185635 | 57 | 37 | 4.3 | 4.3 | 0.00 | 0.00 | 0.00 | 57 | 1026.9 |
| 20260509185131 | 57 | 39 | 4.3 | 6.1 | 0.00 | 0.00 | 0.00 | 57 | 1027.1 |
| 20260509184629 | 57 | 45 | 6.1 | 7.8 | 0.00 | 0.00 | 0.00 | 56 | 1027.1 |
| 20260509184126 | 58 | 46 | 4.3 | 7.0 | 0.00 | 0.00 | 0.00 | 55 | 1026.9 |
| 20260509183622 | 58 | 49 | 5.2 | 8.7 | 0.00 | 0.00 | 0.00 | 55 | 1026.9 |
| 20260509183117 | 58 | 86 | 6.1 | 13.0 | 0.00 | 0.00 | 0.00 | 55 | 1027.0 |
| 20260509182613 | 57 | 80 | 5.2 | 7.0 | 0.00 | 0.00 | 0.00 | 55 | 1026.9 |
| 20260509182110 | 56 | 76 | 7.0 | 7.8 | 0.00 | 0.00 | 0.00 | 57 | 1027.0 |
| 20260509181609 | 55 | 61 | 3.5 | 4.3 | 0.00 | 0.00 | 0.00 | 59 | 1027.1 |
| 20260509181106 | 54 | 92 | 1.7 | 2.6 | 0.00 | 0.00 | 0.00 | 59 | 1027.1 |
| 20260509180602 | 54 | 88 | 3.5 | 3.5 | 0.00 | 0.00 | 0.00 | 59 | 1027.2 |
| 20260509180059 | 54 | 98 | 0.9 | 3.5 | 0.00 | 0.00 | 0.00 | 60 | 1027.3 |
| 20260509175554 | 54 | 67 | 1.7 | 2.6 | 0.00 | 0.00 | 0.00 | 61 | 1027.1 |
| 20260509175052 | 53 | 36 | 1.7 | 1.7 | 0.00 | 0.00 | 0.00 | 61 | 1027.1 |
| 20260509174548 | 54 | 61 | 0.0 | 1.7 | 0.00 | 0.00 | 0.00 | 61 | 1027.4 |
| 20260509174044 | 54 | 7 | 0.0 | 0.9 | 0.00 | 0.00 | 0.00 | 59 | 1027.2 |
| 20260509173543 | 54 | 49 | 0.9 | 3.5 | 0.00 | 0.00 | 0.00 | 59 | 1027.2 |
| 20260509173040 | 54 | 19 | 1.7 | 2.6 | 0.00 | 0.00 | 0.00 | 59 | 1027.4 |
| 20260509172537 | 54 | 36 | 1.7 | 2.6 | 0.00 | 0.00 | 0.00 | 59 | 1027.4 |
| 20260509172033 | 54 | 39 | 1.7 | 1.7 | 0.00 | 0.00 | 0.00 | 59 | 1027.4 |
| 20260509171529 | 54 | 2 | 0.9 | 1.7 | 0.00 | 0.00 | 0.00 | 60 | 1027.3 |
| 20260509171026 | 53 | 1 | 0.0 | 0.9 | 0.00 | 0.00 | 0.00 | 61 | 1027.4 |
| 20260509170521 | 53 | 34 | 0.0 | 0.0 | 0.00 | 0.00 | 0.00 | 61 | 1027.3 |
| 20260509170017 | 54 | 57 | 0.0 | 0.9 | 0.00 | 0.00 | 0.00 | 59 | 1027.4 |
| 20260509165516 | 55 | 205 | 0.0 | 0.9 | 0.00 | 0.00 | 0.00 | 57 | 1027.4 |
| 20260509165012 | 56 | 89 | 0.0 | 2.6 | 0.00 | 0.00 | 0.00 | 55 | 1027.4 |
| 20260509164508 | 56 | 93 | 1.7 | 3.5 | 0.00 | 0.00 | 0.00 | 54 | 1027.5 |
| 20260509164004 | 57 | 78 | 1.7 | 4.3 | 0.00 | 0.00 | 0.00 | 54 | 1027.2 |
| 20260509163502 | 57 | 99 | 2.6 | 4.3 | 0.00 | 0.00 | 0.00 | 53 | 1027.3 |
| 20260509163001 | 57 | 81 | 2.6 | 6.1 | 0.00 | 0.00 | 0.00 | 53 | 1027.3 |
| 20260509162500 | 57 | 92 | 4.3 | 4.3 | 0.00 | 0.00 | 0.00 | 52 | 1027.5 |
| 20260509161955 | 58 | 87 | 4.3 | 6.1 | 0.00 | 0.00 | 0.00 | 52 | 1027.4 |
| 20260509161452 | 58 | 99 | 3.5 | 7.0 | 0.00 | 0.00 | 0.00 | 51 | 1027.5 |
| 20260509160947 | 58 | 96 | 4.3 | 6.1 | 0.00 | 0.00 | 0.00 | 52 | 1027.3 |
| 20260509160443 | 57 | 88 | 6.1 | 7.0 | 0.00 | 0.00 | 0.00 | 52 | 1027.4 |
| 20260509155938 | 57 | 92 | 4.3 | 6.1 | 0.00 | 0.00 | 0.00 | 53 | 1027.4 |
| 20260509155435 | 57 | 95 | 4.3 | 6.1 | 0.00 | 0.00 | 0.00 | 53 | 1027.6 |
| 20260509154932 | 56 | 85 | 2.6 | 5.2 | 0.00 | 0.00 | 0.00 | 54 | 1027.6 |
| 20260509154428 | 57 | 94 | 2.6 | 4.3 | 0.00 | 0.00 | 0.00 | 52 | 1027.6 |
| 20260509153925 | 57 | 93 | 2.6 | 4.3 | 0.00 | 0.00 | 0.00 | 51 | 1027.7 |
| 20260509153422 | 57 | 77 | 4.3 | 5.2 | 0.00 | 0.00 | 0.00 | 52 | 1027.7 |
| 20260509152919 | 57 | 93 | 4.3 | 5.2 | 0.00 | 0.00 | 0.00 | 52 | 1027.7 |
| 20260509152415 | 57 | 85 | 3.5 | 5.2 | 0.00 | 0.00 | 0.00 | 53 | 1027.7 |
| 20260509151912 | 57 | 95 | 3.5 | 5.2 | 0.00 | 0.00 | 0.00 | 52 | 1027.8 |
| 20260509151408 | 57 | 98 | 3.5 | 5.2 | 0.00 | 0.00 | 0.00 | 52 | 1027.8 |
| 20260509150907 | 57 | 85 | 3.5 | 6.1 | 0.00 | 0.00 | 0.00 | 52 | 1027.8 |
| 20260509150404 | 57 | 87 | 3.5 | 4.3 | 0.00 | 0.00 | 0.00 | 51 | 1028.0 |
| 20260509145902 | 57 | 95 | 5.2 | 5.2 | 0.00 | 0.00 | 0.00 | 52 | 1027.9 |
| 20260509145401 | 57 | 87 | 5.2 | 5.2 | 0.00 | 0.00 | 0.00 | 52 | 1028.1 |
| 20260509144857 | 57 | 98 | 4.3 | 5.2 | 0.00 | 0.00 | 0.00 | 52 | 1027.8 |
| 20260509144354 | 57 | 94 | 3.5 | 5.2 | 0.00 | 0.00 | 0.00 | 52 | 1028.1 |
| 20260509143851 | 57 | 96 | 3.5 | 4.3 | 0.00 | 0.00 | 0.00 | 52 | 1028.0 |
| 20260509143349 | 58 | 100 | 3.5 | 5.2 | 0.00 | 0.00 | 0.00 | 51 | 1027.9 |
| 20260509142845 | 58 | 87 | 4.3 | 5.2 | 0.00 | 0.00 | 0.00 | 51 | 1028.0 |
| 20260509142341 | 58 | 104 | 3.5 | 6.1 | 0.00 | 0.00 | 0.00 | 51 | 1028.3 |
| 20260509141837 | 58 | 99 | 4.3 | 5.2 | 0.00 | 0.00 | 0.00 | 51 | 1027.9 |
| 20260509141334 | 58 | 99 | 5.2 | 5.2 | 0.00 | 0.00 | 0.00 | 51 | 1028.2 |
| 20260509140830 | 58 | 89 | 2.6 | 4.3 | 0.00 | 0.00 | 0.00 | 50 | 1028.2 |
| 20260509140328 | 59 | 96 | 4.3 | 5.2 | 0.00 | 0.00 | 0.00 | 49 | 1028.1 |
| 20260509135826 | 59 | 101 | 3.5 | 6.1 | 0.00 | 0.00 | 0.00 | 48 | 1028.2 |
| 20260509135323 | 60 | 84 | 4.3 | 5.2 | 0.00 | 0.00 | 0.00 | 48 | 1028.0 |
| 20260509134820 | 60 | 86 | 3.5 | 5.2 | 0.00 | 0.00 | 0.00 | 47 | 1027.9 |
| 20260509134317 | 60 | 97 | 4.3 | 6.1 | 0.00 | 0.00 | 0.00 | 48 | 1028.1 |
| 20260509133814 | 60 | 94 | 6.1 | 6.1 | 0.00 | 0.00 | 0.00 | 47 | 1028.0 |
| 20260509133311 | 59 | 87 | 6.1 | 7.0 | 0.00 | 0.00 | 0.00 | 48 | 1027.9 |
| 20260509132809 | 59 | 93 | 4.3 | 6.1 | 0.00 | 0.00 | 0.00 | 49 | 1028.0 |
| 20260509132308 | 59 | 92 | 4.3 | 6.1 | 0.00 | 0.00 | 0.00 | 49 | 1028.0 |
| 20260509131804 | 59 | 93 | 6.1 | 7.0 | 0.00 | 0.00 | 0.00 | 50 | 1027.8 |
| 20260509131301 | 59 | 97 | 5.2 | 7.0 | 0.00 | 0.00 | 0.00 | 50 | 1027.9 |
| 20260509130757 | 59 | 95 | 3.5 | 6.1 | 0.00 | 0.00 | 0.00 | 51 | 1028.0 |
| 20260509130253 | 59 | 102 | 4.3 | 6.1 | 0.00 | 0.00 | 0.00 | 51 | 1028.0 |
| 20260509125749 | 59 | 112 | 3.5 | 6.1 | 0.00 | 0.00 | 0.00 | 51 | 1028.0 |
| 20260509125247 | 59 | 108 | 4.3 | 5.2 | 0.00 | 0.00 | 0.00 | 52 | 1028.0 |
| 20260509124743 | 59 | 100 | 5.2 | 7.0 | 0.00 | 0.00 | 0.00 | 51 | 1027.9 |
| 20260509124239 | 59 | 104 | 6.1 | 7.0 | 0.00 | 0.00 | 0.00 | 51 | 1027.9 |
| 20260509123738 | 60 | 102 | 5.2 | 5.2 | 0.00 | 0.00 | 0.00 | 50 | 1027.8 |
| 20260509123235 | 60 | 87 | 3.5 | 7.0 | 0.00 | 0.00 | 0.00 | 50 | 1027.8 |
| 20260509122730 | 60 | 94 | 5.2 | 6.1 | 0.00 | 0.00 | 0.00 | 50 | 1027.7 |
| 20260509122227 | 60 | 105 | 4.3 | 6.1 | 0.00 | 0.00 | 0.00 | 50 | 1027.7 |
| 20260509121724 | 60 | 102 | 6.1 | 6.1 | 0.00 | 0.00 | 0.00 | 50 | 1027.7 |
| 20260509121222 | 60 | 93 | 4.3 | 5.2 | 0.00 | 0.00 | 0.00 | 51 | 1027.6 |
| 20260509120720 | 60 | 97 | 3.5 | 6.1 | 0.00 | 0.00 | 0.00 | 51 | 1027.6 |
| 20260509120217 | 60 | 98 | 4.3 | 4.3 | 0.00 | 0.00 | 0.00 | 51 | 1027.6 |
| 20260509115715 | 60 | 95 | 4.3 | 5.2 | 0.00 | 0.00 | 0.00 | 51 | 1027.6 |
| 20260509115212 | 60 | 91 | 4.3 | 6.1 | 0.00 | 0.00 | 0.00 | 51 | 1027.6 |
| 20260509114710 | 60 | 100 | 4.3 | 4.3 | 0.00 | 0.00 | 0.00 | 52 | 1027.5 |
| 20260509114209 | 60 | 96 | 3.5 | 6.1 | 0.00 | 0.00 | 0.00 | 52 | 1027.5 |
| 20260509113707 | 61 | 108 | 3.5 | 4.3 | 0.00 | 0.00 | 0.00 | 52 | 1027.5 |
| 20260509113204 | 61 | 106 | 4.3 | 5.2 | 0.00 | 0.00 | 0.00 | 51 | 1027.2 |
| 20260509112700 | 60 | 108 | 4.3 | 5.2 | 0.00 | 0.00 | 0.00 | 52 | 1027.4 |
| 20260509112157 | 61 | 111 | 4.3 | 4.3 | 0.00 | 0.00 | 0.00 | 52 | 1027.4 |
| 20260509111654 | 61 | 107 | 4.3 | 4.3 | 0.00 | 0.00 | 0.00 | 52 | 1027.4 |
| 20260509111151 | 62 | 103 | 3.5 | 4.3 | 0.00 | 0.00 | 0.00 | 51 | 1027.7 |
| 20260509110648 | 62 | 96 | 4.3 | 4.3 | 0.00 | 0.00 | 0.00 | 51 | 1027.4 |
| 20260509110145 | 62 | 109 | 3.5 | 4.3 | 0.00 | 0.00 | 0.00 | 51 | 1027.4 |
| 20260509105643 | 62 | 104 | 2.6 | 3.5 | 0.00 | 0.00 | 0.00 | 51 | 1027.6 |
| 20260509105141 | 62 | 113 | 3.5 | 4.3 | 0.00 | 0.00 | 0.00 | 51 | 1027.5 |
| 20260509104638 | 61 | 112 | 2.6 | 3.5 | 0.00 | 0.00 | 0.00 | 53 | 1027.5 |
| 20260509104134 | 61 | 117 | 1.7 | 2.6 | 0.00 | 0.00 | 0.00 | 53 | 1027.4 |
| 20260509103632 | 61 | 138 | 2.6 | 2.6 | 0.00 | 0.00 | 0.00 | 54 | 1027.6 |
| 20260509103130 | 61 | 161 | 0.9 | 1.7 | 0.00 | 0.00 | 0.00 | 54 | 1027.6 |
| 20260509102627 | 62 | 160 | 0.9 | 1.7 | 0.00 | 0.00 | 0.00 | 53 | 1027.4 |
| 20260509102124 | 63 | 159 | 0.9 | 1.7 | 0.00 | 0.00 | 0.00 | 52 | 1027.4 |
| 20260509101620 | 64 | 140 | 1.7 | 1.7 | 0.00 | 0.00 | 0.00 | 50 | 1027.4 |
| 20260509101117 | 64 | 133 | 1.7 | 1.7 | 0.00 | 0.00 | 0.00 | 49 | 1027.3 |
| 20260509100614 | 65 | 110 | 2.6 | 2.6 | 0.00 | 0.00 | 0.00 | 46 | 1027.3 |
| 20260509100112 | 66 | 107 | 2.6 | 2.6 | 0.00 | 0.00 | 0.00 | 44 | 1027.4 |
| 20260509095608 | 67 | 103 | 2.6 | 2.6 | 0.00 | 0.00 | 0.00 | 44 | 1027.3 |
| 20260509095106 | 67 | 99 | 1.7 | 2.6 | 0.00 | 0.00 | 0.00 | 43 | 1027.4 |
| 20260509094601 | 68 | 121 | 1.7 | 2.6 | 0.00 | 0.00 | 0.00 | 41 | 1027.2 |
| 20260509094059 | 69 | 114 | 2.6 | 3.5 | 0.00 | 0.00 | 0.00 | 40 | 1027.1 |
| 20260509093557 | 69 | 110 | 2.6 | 3.5 | 0.00 | 0.00 | 0.00 | 40 | 1027.3 |
| 20260509093054 | 69 | 117 | 2.6 | 3.5 | 0.00 | 0.00 | 0.00 | 40 | 1027.1 |
| 20260509092552 | 70 | 106 | 2.6 | 4.3 | 0.00 | 0.00 | 0.00 | 39 | 1027.1 |
| 20260509092051 | 70 | 114 | 3.5 | 4.3 | 0.00 | 0.00 | 0.00 | 39 | 1027.1 |
| 20260509091548 | 71 | 106 | 2.6 | 4.3 | 0.00 | 0.00 | 0.00 | 38 | 1027.2 |
| 20260509091044 | 71 | 113 | 2.6 | 3.5 | 0.00 | 0.00 | 0.00 | 37 | 1027.3 |
| 20260509090542 | 72 | 94 | 2.6 | 3.5 | 0.00 | 0.00 | 0.00 | 36 | 1027.5 |
| 20260509090039 | 73 | 101 | 1.7 | 3.5 | 0.00 | 0.00 | 0.00 | 35 | 1027.1 |
| 20260509085536 | 73 | 75 | 1.7 | 3.5 | 0.00 | 0.00 | 0.00 | 34 | 1027.1 |
| 20260509085032 | 73 | 70 | 3.5 | 5.2 | 0.00 | 0.00 | 0.00 | 32 | 1027.1 |
| 20260509084529 | 73 | 66 | 2.6 | 4.3 | 0.00 | 0.00 | 0.00 | 33 | 1027.0 |
| 20260509084026 | 74 | 70 | 4.3 | 4.3 | 0.00 | 0.00 | 0.00 | 32 | 1027.1 |
| 20260509083524 | 74 | 81 | 3.5 | 4.3 | 0.00 | 0.00 | 0.00 | 32 | 1027.2 |
| 20260509083020 | 74 | 41 | 4.3 | 4.3 | 0.00 | 0.00 | 0.00 | 32 | 1027.0 |
| 20260509082518 | 74 | 38 | 2.6 | 4.3 | 0.00 | 0.00 | 0.00 | 31 | 1027.1 |
| 20260509082015 | 74 | 70 | 2.6 | 4.3 | 0.00 | 0.00 | 0.00 | 31 | 1027.2 |
| 20260509081512 | 74 | 91 | 3.5 | 6.1 | 0.00 | 0.00 | 0.00 | 32 | 1027.0 |
| 20260509081009 | 74 | 38 | 3.5 | 5.2 | 0.00 | 0.00 | 0.00 | 32 | 1027.0 |
| 20260509080507 | 74 | 27 | 5.2 | 8.7 | 0.00 | 0.00 | 0.00 | 32 | 1027.1 |
| 20260509080005 | 75 | 51 | 4.3 | 4.3 | 0.00 | 0.00 | 0.00 | 30 | 1027.1 |
| 20260509075502 | 74 | 66 | 2.6 | 4.3 | 0.00 | 0.00 | 0.00 | 30 | 1027.1 |
| 20260509074959 | 74 | 98 | 4.3 | 6.1 | 0.00 | 0.00 | 0.00 | 31 | 1026.8 |
| 20260509074457 | 74 | 43 | 2.6 | 7.8 | 0.00 | 0.00 | 0.00 | 32 | 1026.9 |
| 20260509073953 | 74 | 64 | 2.6 | 4.3 | 0.00 | 0.00 | 0.00 | 31 | 1027.0 |
| 20260509073449 | 74 | 52 | 1.7 | 5.2 | 0.00 | 0.00 | 0.00 | 31 | 1027.0 |
| 20260509072946 | 74 | 43 | 7.8 | 11.3 | 0.00 | 0.00 | 0.00 | 32 | 1027.0 |